[Iaude] MPEC M102: 2024 MA1 [a=2.48,e=0.75,i=8.3,H=21.5]
    mpec at cfa.harvard.edu 
    mpec at cfa.harvard.edu
       
    Fri Jun 28 06:15:50 EDT 2024
    
    
  
M.P.E.C. 2024-M102                                Issued 2024 June 28, 10:14 UT
     The Minor Planet Electronic Circulars contain information on unusual
         minor planets, routine data on comets and natural satellites,
         and occasional editorial announcements.  They are published
    on behalf of Division F of the International Astronomical Union by the
          Minor Planet Center, Smithsonian Astrophysical Observatory,
                          Cambridge, MA 02138, U.S.A.
			  
             Prepared using the Tamkin Foundation Computer Network
                              MPC at CFA.HARVARD.EDU
            URL https://www.minorplanetcenter.net/    ISSN 1523-6714
                                    2024 MA1                                    
Observations:
     K24M01A* C2024 06 16.51821420 08 56.363-05 01 56.29         22.36wXEM102F52
     K24M01A  C2024 06 16.52871920 08 56.597-05 01 39.26         21.69wXEM102F52
     K24M01A  C2024 06 16.53924320 08 56.832-05 01 22.30         22.57wXEM102F52
     K24M01A 1C2024 06 16.59756420 08 58.137-04 59 47.40         21.86GVEM102T12
     K24M01A  C2024 06 16.59817220 08 58.176-04 59 46.64         22.13GVEM102F52
     K24M01A  C2024 06 16.59882520 08 58.188-04 59 45.53         22.05GVEM102F52
     K24M01A 1C2024 06 16.59955420 08 58.197-04 59 44.12         22.34GVEM102T12
     K24M01A 1C2024 06 16.60122420 08 58.231-04 59 41.25         21.94GVEM102T12
     K24M01A  C2024 06 18.54971620 09 52.053-04 04 55.50         21.94GVEM102F52
     K24M01A  C2024 06 18.55054220 09 52.068-04 04 54.04         21.81GVEM102F52
     K24M01A  C2024 06 27.52346620 13 01.911+01 17 45.52         21.74wXEM102F51
     K24M01A  C2024 06 27.54221220 13 02.052+01 18 35.47         21.72wXEM102F51
     K24M01A  C2024 06 27.55100520 13 02.120+01 18 58.80         21.50wXEM102F51
     K24M01A KC2024 06 28.29576 20 13 14.30 +01 52 40.5          21.3 RVEM102291
     K24M01A KC2024 06 28.30324 20 13 14.37 +01 53 01.0          21.4 RVEM102291
Observer details:
291 LPL/Spacewatch II.  Observer R. A. Mastaler.  1.8-m f/2.7 reflector + CCD.
F51 Pan-STARRS 1, Haleakala.  Observers J. Herman, T. Lowe, P. Minguez, A.
    Schultz, I. Smith.  Measurers K. Chambers, T. de Boer, J. Fairlamb, H.
    Gao, M. Huber, C.-C. Lin, E. Magnier, Y. Ramanjooloo, R. Wainscoat, R.
    Weryk.  1.8-m Ritchey-Chretien + CCD.
F52 Pan-STARRS 2, Haleakala.  Observers J. Herman, T. Lowe, P. Minguez, A.
    Schultz, I. Smith.  Measurers K. Chambers, T. de Boer, J. Fairlamb, H.
    Gao, M. Huber, C.-C. Lin, E. Magnier, Y. Ramanjooloo, R. Wainscoat, R.
    Weryk.  1.8-m Ritchey-Chretien + CCD.
T12 University of Hawaii 88-inch telescope, Maunakea.  Observers J. Fairlamb,
    L. Benavitz, K. Toguchi-Tani.  Measurers R. Weryk, J. Fairlamb, Y.
    Ramanjooloo, R. Wainscoat.  2.24-m f/10.1 reflector + CCD.
Orbital elements:
2024 MA1                                                 Earth MOID = 0.1181 AU
Epoch 2024 Mar. 31.0 TT = JDT 2460400.5                 MPC                     
M 318.65610              (2000.0)            P               Q                  
n   0.25171385     Peri.  155.32775     +0.85026666     -0.51255195             
a   2.4842653      Node   236.03453     +0.45577116     +0.83073719             
e   0.7513836      Incl.    8.30086     +0.26328550     +0.21717786             
P   3.92           H   21.52          G   0.15           U   8                  
Residuals in seconds of arc
240616 F52  0.2+  0.1-    240616 F52  0.0   0.0     240627 F51  0.0   0.0
240616 F52  0.1+  0.1-    240616 T12  0.1+  0.0     240627 F51  0.0   0.0
240616 F52  0.1+  0.1-    240616 T12  0.1+  0.2+    240627 F51  0.0   0.1-
240616 T12  0.1-  0.0     240618 F52  0.0   0.0     240628 291  0.1-  0.2+
240616 F52  0.1+  0.0     240618 F52  0.0   0.0     240628 291  0.0   0.1-
Ephemeris:
2024 MA1                 a,e,i = 2.48, 0.75, 8                   q = 0.6176
Date    TT    R. A. (2000) Decl.     Delta      r    Elong.  Phase     V
2024 05 29    19 57 08.1 -11 12 45   0.8957  1.7175   128.1    27.7    23.7
...
2024 06 13    20 07 08.7 -06 30 39   0.6406  1.5510   137.8    26.1    22.7
...
2024 06 21    20 10 53.5 -02 49 25   0.5169  1.4588   142.1    25.4    22.1
...
2024 06 27    20 12 53.7 +00 54 56   0.4302  1.3882   144.1    25.4    21.6
2024 06 28    20 13 09.3 +01 39 15   0.4163  1.3763   144.3    25.5    21.5
2024 06 29    20 13 23.6 +02 26 00   0.4026  1.3643   144.4    25.7    21.4
...
2024 07 05    20 14 19.6 +08 11 18   0.3239  1.2921   143.7    27.8    20.9
...
2024 07 13    20 14 04.5 +20 35 50   0.2311  1.1942   136.2    36.1    20.2
...
2024 07 28    19 49 53.1 +77 46 17   0.1415  1.0082    83.1    88.9    20.4
A. U. Tomatic                (C) Copyright 2024 MPC           M.P.E.C. 2024-M102
    
    
More information about the Iaude
mailing list